Terminal Aerodrome Forecast
Issued by NWS Boston, MA

Home | Current Version | Previous Version | Text Only | Print | Product List | Glossary On
Versions: 1 2 3 4 5 6 7 8 9 10 11 12 13 14 15 16 17 18 19 20 21 22 23 24 25 26 27 28 29 30 31 32 33
000
FTUS41 KBOX 212330
TAFORH
TAF
KORH 212330Z 2200/2224 06005KT P6SM OVC045
     FM220300 13005KT P6SM OVC035
     FM220900 08005KT P6SM OVC015
     FM221400 07008KT P6SM OVC030
     FM221600 07009KT P6SM OVC035=

USA.gov is the U.S. government's official web portal to all federal, state and local government web resources and services.